Regional Weather Roundup
Issued by NWS

Home | Current Version | Previous Version | Graphics & Text | Print | Product List | Glossary On
Versions: 1 2 3 4 5 6 7 8 9 10 11 12 13 14 15 16 17 18 19 20 21 22 23 24 25 26 27 28 29 30 31 32 33 34 35 36 37 38 39 40 41 42 43 44 45 46 47 48 49 50
000
ASUS43 KTOP 212059
RWRKS

WEATHER ROUNDUP FOR KANSAS
NATIONAL WEATHER SERVICE GOODLAND KS
300 PM CST SUN JAN 21 2018

NOTE:  "FAIR" INDICATES FEW OR NO CLOUDS BELOW 12,000 FEET WITH NO
SIGNIFICANT WEATHER AND/OR OBSTRUCTIONS TO VISIBILITY.

KSZ001>006-013>018-027>032-041>047-212200-
NORTHWEST KANSAS

CITY           SKY/WX    TMP DP  RH WIND       PRES   REMARKS
GOODLAND       LGT SNOW  30  29  96 N24G36    29.62F FOG     WCI  16
HAYS           CLOUDY    40  39  97 NE12      29.58F FOG     WCI  33
HILL CITY      LGT SNOW  37  36  96 NE18      29.61F VSB 1   WCI  27
RUSSELL        CLOUDY    43  43 100 N3        29.57F FOG
$$

KSZ061>065-074>080-084>089-212200-
SOUTHWEST KANSAS

CITY           SKY/WX    TMP DP  RH WIND       PRES   REMARKS
DODGE CITY     CLOUDY    40  33  76 W15       29.64R WCI  32
GARDEN CITY    CLOUDY    34  32  92 W8        29.64S FOG
GREAT BEND     CLOUDY    42  37  82 S3        29.59F
LIBERAL        MOSUNNY   42  31  64 NW6       29.63F
$$

KSZ066>073-081>083-090>101-212200-
SOUTHEAST KANSAS

CITY           SKY/WX    TMP DP  RH WIND       PRES   REMARKS
CHANUTE          N/A     65  52  62 S14       29.67F
COFFEYVILLE    PTSUNNY   69  54  58 S18G25    29.66F
HUTCHINSON     SUNNY     56  34  43 S15       29.59F
MEDICINE LODGE   N/A     79  32  18 SW10      29.61F
NEWTON         CLOUDY    59  46  62 S25G35    29.59F
PARSONS        CLOUDY    67  54  63 S12G20    29.67F
WICHITA INTL   PTSUNNY   62  46  55 SW20      29.60S
WICHITA JABRA  PTSUNNY   61  49  64 S18G25    29.60F
WICHITA MCCONL PTSUNNY   62  45  53 SW21      29.60F
WINFIELD       PTSUNNY   64  51  62 S17G25    29.62F
$$

KSZ007>012-019>026-033>040-048>060-102>105-212200-
NORTHEAST KANSAS

CITY           SKY/WX    TMP DP  RH WIND       PRES   REMARKS
CONCORDIA      MOSUNNY   49  39  68 S13       29.60S
EMPORIA        CLOUDY    60  49  66 S14       29.62F
LAWRENCE       CLOUDY    62  51  67 S15       29.68S
MANHATTAN      PTSUNNY   62  46  55 S16       29.58F
OLATHE IND     CLOUDY    65  51  60 S18       29.69F
OLATHE EXE     MOSUNNY   63  51  65 S20G25    29.68F
SALINA         SUNNY     54  38  54 SW15      29.60S
TOPEKA BILLARD CLOUDY    61  50  67 S7        29.65F
TOPEKA FORBES  CLOUDY    62  50  64 S12       29.65F
$$




USA.gov is the U.S. government's official web portal to all federal, state and local government web resources and services.